Location: Noordwijk
(52.2400°N, 4.4500°E)
Time: 03:17:02
(UTC+00:00)

PCSat - Pass Details

Date: 15 December 2022
Orbit: 785 x 793 km, 67.0° (Epoch: 28 January)

Event Time Altitude Azimuth Distance (km) Brightness Sun altitude
Rises 17:19:32 0° 228° (SW) 3,274 14.0 -15.6°
Reaches altitude 10° 17:21:58 10° 232° (SW) 2,350 13.1 -15.9°
Maximum altitude 17:27:19 62° 313° (NW) 888 9.9 -16.7°
Enters shadow 17:31:13 19° 31° (NNE) 1,820 11.0 -17.3°
